TimeEST,TemperatureF,Dew PointF,Humidity,Sea Level PressureIn,VisibilityMPH,Wind Direction,Wind SpeedMPH,Gust SpeedMPH,PrecipitationIn,Events,Conditions,WindDirDegrees,DateUTC
12:51 AM,30.0,15.1,54,30.19,10.0,WNW,13.8,20.7,N/A,,Clear,300,2012-12-31 05:51:00
1:51 AM,30.0,12.9,49,30.19,10.0,West,12.7,-,N/A,,Partly Cloudy,270,2012-12-31 06:51:00
2:51 AM,30.0,12.0,47,30.19,10.0,West,11.5,-,N/A,,Scattered Clouds,260,2012-12-31 07:51:00
3:51 AM,30.9,12.0,46,30.17,10.0,West,15.0,20.7,N/A,,Overcast,270,2012-12-31 08:51:00
4:51 AM,33.1,16.0,50,30.18,10.0,West,16.1,26.5,N/A,,Overcast,260,2012-12-31 09:51:00
5:51 AM,33.1,17.1,52,30.16,10.0,West,11.5,-,N/A,,Mostly Cloudy,260,2012-12-31 10:51:00
6:51 AM,32.0,18.0,56,30.17,10.0,West,15.0,23.0,N/A,,Mostly Cloudy,270,2012-12-31 11:51:00
7:51 AM,30.9,18.0,59,30.17,10.0,West,19.6,26.5,N/A,,Mostly Cloudy,260,2012-12-31 12:51:00
8:51 AM,30.9,18.0,59,30.17,10.0,WSW,13.8,23.0,N/A,,Mostly Cloudy,250,2012-12-31 13:51:00
9:51 AM,32.0,18.0,56,30.17,10.0,West,11.5,-,N/A,,Mostly Cloudy,260,2012-12-31 14:51:00
10:51 AM,33.1,18.0,54,30.15,10.0,West,10.4,-,N/A,,Mostly Cloudy,260,2012-12-31 15:51:00
11:51 AM,35.1,18.0,50,30.11,10.0,West,11.5,-,N/A,,Mostly Cloudy,260,2012-12-31 16:51:00
12:51 PM,37.0,19.0,48,30.06,10.0,West,10.4,-,N/A,,Mostly Cloudy,260,2012-12-31 17:51:00
1:51 PM,37.9,19.9,48,30.03,10.0,WSW,10.4,17.3,N/A,,Mostly Cloudy,250,2012-12-31 18:51:00
2:51 PM,39.0,19.9,46,30.02,10.0,WSW,13.8,-,N/A,,Mostly Cloudy,250,2012-12-31 19:51:00
3:51 PM,37.9,19.0,47,29.99,10.0,WSW,12.7,-,N/A,,Mostly Cloudy,240,2012-12-31 20:51:00
4:51 PM,37.9,21.0,51,29.98,10.0,West,10.4,-,N/A,,Mostly Cloudy,260,2012-12-31 21:51:00
5:51 PM,39.2,19.4,45,29.98,10.0,WSW,12.7,23.0,N/A,,Overcast,250,2012-12-31 22:51:00
6:51 PM,37.9,19.0,47,29.97,10.0,SW,17.3,25.3,N/A,,Overcast,230,2012-12-31 23:51:00
7:51 PM,39.0,19.0,45,29.94,10.0,WSW,13.8,23.0,N/A,,Overcast,240,2013-01-01 00:51:00
8:51 PM,39.0,19.0,45,29.91,10.0,WSW,13.8,19.6,N/A,,Overcast,240,2013-01-01 01:51:00
9:51 PM,39.9,19.0,43,29.89,10.0,WSW,15.0,25.3,N/A,,Overcast,240,2013-01-01 02:51:00
10:51 PM,39.9,21.0,47,29.90,10.0,WSW,16.1,25.3,N/A,,Overcast,250,2013-01-01 03:51:00
11:51 PM,41.0,23.0,49,29.90,10.0,West,18.4,26.5,N/A,,Overcast,260,2013-01-01 04:51:00